TimeHST,TemperatureF,Dew PointF,Humidity,Sea Level PressureIn,VisibilityMPH,Wind Direction,Wind SpeedMPH,Gust SpeedMPH,PrecipitationIn,Events,Conditions,WindDirDegrees,DateUTC
12:19 AM,73.4,64.4,73,30.03,10.0,ESE,8.1,-,0.00,,Mostly Cloudy,110,2012-12-12 10:19:00
12:53 AM,73.0,64.0,73,30.02,10.0,East,8.1,-,0.00,,Partly Cloudy,80,2012-12-12 10:53:00
1:19 AM,73.4,62.6,69,30.01,10.0,ENE,8.1,-,N/A,,Mostly Cloudy,60,2012-12-12 11:19:00
1:53 AM,73.0,63.0,71,30.01,10.0,ENE,6.9,-,0.01,,Overcast,60,2012-12-12 11:53:00
2:42 AM,73.4,62.6,69,29.98,10.0,SE,6.9,-,N/A,,Overcast,130,2012-12-12 12:42:00
2:53 AM,72.0,63.0,73,29.98,10.0,SE,6.9,-,N/A,,Mostly Cloudy,130,2012-12-12 12:53:00
3:53 AM,73.0,64.9,76,29.98,10.0,ESE,5.8,-,N/A,,Mostly Cloudy,120,2012-12-12 13:53:00
4:53 AM,72.0,64.0,76,29.98,10.0,Calm,Calm,-,N/A,,Partly Cloudy,0,2012-12-12 14:53:00
5:53 AM,70.0,64.0,81,29.99,10.0,NE,3.5,-,N/A,,Clear,50,2012-12-12 15:53:00
6:53 AM,70.0,63.0,78,30.01,10.0,NE,3.5,-,N/A,,Partly Cloudy,40,2012-12-12 16:53:00
7:53 AM,72.0,64.9,78,30.03,10.0,Calm,Calm,-,N/A,,Partly Cloudy,0,2012-12-12 17:53:00
8:53 AM,77.0,64.9,66,30.04,10.0,Calm,Calm,-,N/A,,Clear,0,2012-12-12 18:53:00
9:53 AM,78.1,64.0,62,30.04,10.0,West,5.8,-,N/A,,Clear,270,2012-12-12 19:53:00
10:53 AM,79.0,64.9,62,30.04,10.0,South,6.9,-,N/A,,Mostly Cloudy,180,2012-12-12 20:53:00
11:53 AM,78.1,64.9,64,30.02,10.0,WSW,6.9,-,N/A,,Overcast,250,2012-12-12 21:53:00
12:53 PM,79.0,64.0,60,30.00,10.0,WSW,8.1,-,N/A,,Overcast,240,2012-12-12 22:53:00
1:53 PM,80.1,64.0,58,29.98,10.0,SSW,10.4,-,N/A,,Overcast,210,2012-12-12 23:53:00
2:53 PM,79.0,63.0,58,29.98,10.0,WSW,9.2,-,N/A,,Overcast,240,2012-12-13 00:53:00
3:53 PM,79.0,64.9,62,29.97,10.0,WSW,6.9,-,N/A,,Mostly Cloudy,240,2012-12-13 01:53:00
4:53 PM,80.1,60.1,50,29.97,10.0,ENE,8.1,21.9,N/A,,Mostly Cloudy,60,2012-12-13 02:53:00
5:53 PM,77.0,57.0,50,29.98,10.0,NE,19.6,32.2,0.00,Rain,Light Rain,50,2012-12-13 03:53:00
6:53 PM,75.9,57.9,54,29.99,10.0,NNE,16.1,-,0.00,,Clear,20,2012-12-13 04:53:00
7:53 PM,75.0,57.9,55,30.01,10.0,NNE,6.9,-,N/A,,Mostly Cloudy,20,2012-12-13 05:53:00
8:53 PM,73.9,57.0,55,30.02,10.0,NNE,9.2,-,N/A,,Clear,30,2012-12-13 06:53:00
9:53 PM,75.9,64.0,67,30.04,10.0,SE,5.8,-,N/A,,Overcast,130,2012-12-13 07:53:00
10:53 PM,75.9,63.0,64,30.04,10.0,SE,3.5,-,N/A,,Overcast,140,2012-12-13 08:53:00
11:53 PM,75.9,63.0,64,30.04,10.0,SSW,3.5,-,N/A,,Mostly Cloudy,200,2012-12-13 09:53:00